GW0523 Weather Reports


time (UTC)temp
F
wind
direction
speed
knots
gust
knots
rain 1hr
in
rain 24hr
in
rain mn
in
humidity
%
barometer
mb
20260507192550 52 90 1.7 1.7 0.00 0.00 0.00 70 1011.2
20260507191647 53 120 1.7 2.6 0.00 0.00 0.00 67 1011.3
20260507190643 55 0.0 0.0 0.00 0.00 0.00 63 1011.2
20260507185639 53 0.0 0.0 0.00 0.00 0.00 68 1011.1
20260507184635 53 0.0 0.0 0.00 0.00 0.00 68 1011.0
20260507183631 53 0.0 0.0 0.00 0.00 0.00 68 1011.0
20260507182626 53 279 0.9 1.7 0.00 0.00 0.00 68 1011.0
20260507181641 53 295 2.6 3.5 0.00 0.00 0.00 68 1011.1
20260507180617 53 275 2.6 3.5 0.00 0.00 0.00 69 1010.9
20260507175613 54 315 1.7 3.5 0.00 0.00 0.00 70 1011.0
20260507174609 53 280 2.6 4.3 0.00 0.00 0.00 70 1011.0
20260507173604 54 282 2.6 3.5 0.00 0.00 0.00 70 1011.0
20260507172559 54 270 1.7 2.6 0.00 0.00 0.00 70 1011.0
20260507171554 56 270 2.6 3.5 0.00 0.00 0.00 63 1010.9
20260507170549 55 0.0 1.7 0.00 0.00 0.00 64 1011.0
20260507165644 0 0.0 0.0 0.00 0.00 0.00 1010.9
20260507164700 0 0.0 0.0 0.00 0.00 0.00 1010.9
20260507163635 56 293 3.5 3.5 0.00 0.00 0.00 59 1010.7
20260507162631 56 213 5.2 7.0 0.00 0.00 0.00 58 1010.8
20260507161628 56 180 6.1 7.0 0.00 0.00 0.00 57 1010.8
20260507160623 55 180 7.0 7.8 0.00 0.00 0.00 57 1010.7
20260507155618 55 180 3.5 7.8 0.00 0.00 0.00 58 1010.8
20260507154613 55 180 7.0 9.6 0.00 0.00 0.00 57 1010.8
20260507153609 55 180 7.0 8.7 0.00 0.00 0.00 59 1010.8
20260507152604 55 171 6.1 8.7 0.00 0.00 0.00 59 1010.8
20260507151601 55 219 6.1 7.8 0.00 0.00 0.00 61 1010.9
20260507150557 0 0.0 0.0 0.00 0.00 0.00 1010.9
20260507145553 55 180 3.5 3.5 0.00 0.00 0.00 63 1010.9
20260507144549 55 135 3.5 6.1 0.00 0.00 0.00 63 1010.9
20260507143545 0 0.0 0.0 0.00 0.00 0.00 1011.0
20260507142640 0 0.0 0.0 0.00 0.00 0.00 1011.2
20260507141635 0 0.0 0.0 0.00 0.00 0.00 1011.3
20260507140631 0 0.0 0.0 0.00 0.00 0.00 1011.3
20260507135626 0 0.0 0.0 0.00 0.00 0.00 1011.4
20260507134643 0 0.0 0.0 0.00 0.00 0.00 1011.3
20260507133618 0 0.0 0.0 0.00 0.00 0.00 1011.3
20260507132613 57 135 7.0 9.6 0.00 0.00 0.00 60 1011.4
20260507131608 55 180 7.0 8.7 0.00 0.00 0.00 62 1011.5
20260507130603 0 0.0 0.0 0.00 0.00 0.00 1011.5
20260507125617 0 0.0 0.0 0.00 0.00 0.00 1011.5
20260507124553 0 0.0 0.0 0.00 0.00 0.00 1011.4
20260507123629 0 0.0 0.0 0.00 0.00 0.00 1011.4
20260507122545 56 135 4.3 6.1 0.00 0.00 0.00 60 1011.4
20260507121541 0 0.0 0.0 0.00 0.00 0.00 1011.4
20260507120536 57 180 8.7 11.3 0.00 0.00 0.00 60 1011.5
20260507115631 57 135 6.1 7.0 0.00 0.00 0.00 59 1011.4
20260507114626 57 151 6.1 7.0 0.00 0.00 0.00 59 1011.4
20260507113622 56 158 5.2 7.0 0.00 0.00 0.00 60 1011.6
20260507112618 57 118 4.3 7.0 0.00 0.00 0.00 60 1011.6
20260507111614 56 159 4.3 7.0 0.00 0.00 0.00 61 1011.7
20260507110630 55 130 4.3 7.0 0.00 0.00 0.00 64 1011.9
20260507105606 53 146 4.3 6.1 0.00 0.00 0.00 67 1011.9
20260507104602 53 169 5.2 7.0 0.00 0.00 0.00 68 1012.1
20260507103558 52 156 3.5 5.2 0.00 0.00 0.00 70 1012.0
20260507102613 52 111 0.9 3.5 0.00 0.00 0.00 70 1012.1
20260507101548 52 135 2.6 4.3 0.00 0.00 0.00 71 1012.1
20260507100544 51 135 1.7 1.7 0.00 0.00 0.00 74 1012.2
20260507095540 51 135 2.6 3.5 0.00 0.00 0.00 75 1012.1
20260507094537 50 135 2.6 3.5 0.00 0.00 0.00 76 1012.0
20260507093631 50 96 3.5 4.3 0.00 0.00 0.00 76 1012.0
20260507092626 50 90 1.7 2.6 0.00 0.00 0.00 78 1011.9
20260507091621 49 0.9 3.5 0.00 0.00 0.00 80 1011.9
20260507090616 49 293 1.7 3.5 0.00 0.00 0.00 80 1012.0
20260507085611 48 90 0.9 1.7 0.00 0.00 0.00 81 1011.9
20260507084606 48 1.7 3.5 0.00 0.00 0.00 82 1012.0
20260507083742 47 90 0.9 1.7 0.00 0.00 0.00 82 1012.0
20260507082559 47 90 1.7 2.6 0.00 0.00 0.00 83 1011.9
20260507081555 46 90 1.7 3.5 0.00 0.00 0.00 83 1011.9
20260507080550 46 90 1.7 2.6 0.00 0.00 0.00 84 1011.9
20260507075545 46 90 0.9 2.6 0.00 0.00 0.00 84 1011.8
20260507074600 46 90 0.9 2.6 0.00 0.00 0.00 84 1011.8
20260507073536 46 90 0.9 2.6 0.00 0.00 0.00 84 1011.8
20260507072612 45 90 0.9 1.7 0.00 0.00 0.00 90 1011.8
20260507071608 45 0.9 2.6 0.00 0.00 0.00 90 1011.8
20260507070625 45 90 0.9 2.6 0.00 0.00 0.00 90 1011.7
20260507065620 45 90 0.9 2.6 0.00 0.00 0.00 90 1011.7
20260507064637 44 90 0.0 1.7 0.00 0.00 0.00 90 1011.6
20260507063612 44 122 0.9 2.6 0.00 0.00 0.00 90 1011.6
20260507062607 44 90 0.0 2.6 0.00 0.00 0.00 90 1011.6
20260507061602 44 90 0.0 1.7 0.00 0.00 0.00 90 1011.5
20260507060558 44 90 1.7 2.6 0.00 0.00 0.00 90 1011.6
20260507055614 44 90 0.9 2.6 0.00 0.00 0.00 90 1011.5
20260507054550 44 90 0.0 1.7 0.00 0.00 0.00 90 1011.5
20260507053546 44 90 0.0 1.7 0.00 0.00 0.00 89 1011.4
20260507052600 43 0.0 0.0 0.00 0.00 0.00 89 1011.5
20260507051535 43 90 1.7 2.6 0.00 0.00 0.00 89 1011.5
20260507050531 43 90 1.7 3.5 0.00 0.00 0.00 88 1011.5
20260507045525 43 90 1.7 3.5 0.00 0.00 0.00 88 1011.5
20260507044701 43 90 1.7 2.6 0.00 0.00 0.00 88 1011.5
20260507043617 43 90 2.6 3.5 0.00 0.00 0.00 87 1011.4
20260507042633 44 90 1.7 2.6 0.00 0.00 0.00 87 1011.4
20260507041609 44 90 1.7 2.6 0.00 0.00 0.00 86 1011.4
20260507040624 44 90 0.9 3.5 0.00 0.00 0.00 86 1011.5
20260507035559 44 90 0.9 1.7 0.00 0.00 0.00 85 1011.4
20260507034554 44 90 0.9 1.7 0.00 0.00 0.00 84 1011.4
20260507033550 44 90 1.7 2.6 0.00 0.00 0.00 84 1011.4
20260507032546 44 90 1.7 3.5 0.00 0.00 0.00 84 1011.5
20260507031542 44 90 2.6 3.5 0.00 0.00 0.00 83 1011.4
20260507030539 44 90 1.7 3.5 0.00 0.00 0.00 83 1011.4
20260507025615 44 90 1.7 2.6 0.00 0.00 0.00 82 1011.5
20260507024531 44 90 1.7 1.7 0.00 0.00 0.00 82 1011.5
20260507023526 44 90 1.7 2.6 0.00 0.00 0.00 82 1011.5
20260507022521 44 90 1.7 1.7 0.00 0.00 0.00 81 1011.5
20260507021616 45 90 1.7 3.5 0.00 0.00 0.00 81 1011.5
20260507020612 45 90 0.9 2.6 0.00 0.00 0.00 81 1011.5
20260507015608 45 90 1.7 3.5 0.00 0.00 0.00 81 1011.7
20260507014625 45 0.0 0.0 0.00 0.00 0.00 81 1011.7
20260507013620 45 0.0 1.7 0.00 0.00 0.00 81 1011.7
20260507012555 45 0.9 1.7 0.00 0.00 0.00 80 1011.6
20260507011610 45 98 1.7 3.5 0.00 0.00 0.00 80 1011.6
20260507010545 45 135 2.6 3.5 0.00 0.00 0.00 80 1011.8
20260507005535 45 113 1.7 3.5 0.00 0.00 0.00 78 1011.7
20260507004525 46 97 1.7 3.5 0.00 0.00 0.00 72 1011.8
20260507003521 46 90 0.9 2.6 0.00 0.00 0.00 72 1011.8
20260507002615 46 90 1.7 2.6 0.00 0.00 0.00 71 1011.7
20260507001602 46 90 1.7 1.7 0.00 0.00 0.00 71 1011.8
20260507000712 46 90 1.7 2.6 0.00 0.00 0.00 70 1011.9
20260506235701 47 135 1.7 2.6 0.00 0.00 0.00 70 1011.9
20260506234630 47 124 1.7 3.5 0.00 0.00 0.00 70 1011.8
20260506233626 47 135 3.5 5.2 0.00 0.00 0.00 70 1011.7
20260506232616 47 153 4.3 7.0 0.00 0.00 0.00 70 1011.8
20260506231612 47 90 4.3 7.0 0.00 0.00 0.00 69 1011.8
20260506230603 47 135 7.0 7.8 0.00 0.00 0.00 68 1011.9
20260506225559 48 106 2.6 4.3 0.00 0.00 0.00 68 1011.8
20260506224650 48 116 2.6 3.5 0.00 0.00 0.00 67 1011.8
20260506223640 47 135 2.6 7.0 0.00 0.00 0.00 67 1011.8
20260506222635 47 90 0.9 1.7 0.00 0.00 0.00 66 1011.8
20260506221625 47 90 0.9 1.7 0.00 0.00 0.00 66 1011.8
20260506220616 48 90 1.7 2.6 0.00 0.00 0.00 65 1011.6
20260506215611 48 67 1.7 4.3 0.00 0.00 0.00 65 1011.6
20260506214602 48 90 1.7 3.5 0.00 0.00 0.00 63 1011.5
20260506213558 48 90 1.7 3.5 0.00 0.00 0.00 63 1011.5
20260506212648 49 90 3.5 3.5 0.00 0.00 0.00 61 1011.4
20260506211638 48 4.3 7.0 0.00 0.00 0.00 62 1011.4
20260506210633 48 90 1.7 1.7 0.00 0.00 0.00 61 1011.3
20260506205622 49 90 1.7 3.5 0.00 0.00 0.00 60 1011.1
20260506204612 50 90 3.5 6.1 0.00 0.00 0.00 60 1011.2
20260506203608 50 90 3.5 3.5 0.00 0.00 0.00 58 1011.3
20260506202559 50 135 2.6 3.5 0.00 0.00 0.00 58 1011.3
20260506201555 50 90 4.3 7.0 0.00 0.00 0.00 60 1011.2
20260506200644 50 135 3.5 4.3 0.00 0.00 0.00 60 1011.2
20260506195653 51 116 3.5 5.2 0.00 0.00 0.00 60 1011.0
20260506194623 51 80 1.7 3.5 0.00 0.00 0.00 59 1011.0
20260506193619 51 123 1.7 3.5 0.00 0.00 0.00 58 1010.9